Weather History for Sparta, IL

Change the Weather History Date:

Friday, January 11, 2013

  Actual Average (KBLV) Record (KBLV)
Temperature  
Mean Temperature 56 °F -  
Max Temperature 60 °F 35 °F 61 °F (2013)
Min Temperature 51 °F 18 °F -19 °F (1977)
Degree Days  
Heating Degree Days 10    
Growing Degree Days 6 (Base 50)    
Moisture  
Dew Point 54 °F    
Average Humidity 94    
Maximum Humidity 100    
Minimum Humidity 77    
Precipitation  
Precipitation 0.00 in - - ()
Sea Level Pressure  
Sea Level Pressure 29.87 in    
Wind  
Wind Speed 10 mph (South)    
Max Wind Speed 18 mph    
Max Gust Speed 26 mph    
Visibility 10 miles    
Events      
Averages and records for this station are not official NWS values.
T = Trace of Precipitation, MM = Missing Value Source: NWS Daily Summary

Daily Weather History Graph

Daily Weather History Graph

Search for Another Location

Airport:

Trip Planner

Search our weather history database for the weather conditions in past years. The results will help you decide how hot, cold, wet, or windy it might be!

Date:

Astronomy

Jan. 11, 2013 Rise Set
Actual Time 7:14 AM CST 4:59 PM CST
Civil Twilight 6:45 AM CST 5:28 PM CST
Nautical Twilight 6:13 AM CST 6:00 PM CST
Astronomical Twilight 5:41 AM CST 6:32 PM CST
Moon 6:48 AM CST (1/11) 5:16 PM CST (1/11)
Length of Visible Light 10h 42m
Length of Day
9h 44m
Waning Crescent, 0% of the Moon is Illuminated
Jan 11
Waning Crescent
Jan 11
New
Jan 18
First Quarter
Jan 26
Full
Feb 3
Last Quarter

Hourly Weather History & Observations

Time (CST) Temp. Dew Point Humidity Pressure Visibility Wind Dir Wind Speed Gust Speed Precip Events Conditions
12:15 AM 60.8 °F 60.8 °F 100% 29.81 in 10.0 mi SSW 5.8 mph - N/A   Mostly Cloudy
12:35 AM 60.8 °F 60.8 °F 100% 29.82 in 10.0 mi SSW 9.2 mph - N/A   Mostly Cloudy
12:55 AM 60.8 °F 60.8 °F 100% 29.82 in 10.0 mi SSW 8.1 mph - N/A   Scattered Clouds
1:15 AM 60.8 °F 60.8 °F 100% 29.82 in 10.0 mi SSW 8.1 mph - N/A   Scattered Clouds
1:35 AM 59.0 °F 59.0 °F 100% 29.84 in 10.0 mi SW 8.1 mph - N/A   Mostly Cloudy
1:55 AM 59.0 °F 59.0 °F 100% 29.84 in 10.0 mi SW 6.9 mph - N/A   Mostly Cloudy
2:15 AM 57.2 °F 57.2 °F 100% 29.85 in 10.0 mi SW 8.1 mph - N/A   Scattered Clouds
2:35 AM 57.2 °F 57.2 °F 100% 29.85 in 10.0 mi SW 8.1 mph - N/A   Scattered Clouds
2:55 AM 57.2 °F 57.2 °F 100% 29.86 in 10.0 mi SW 9.2 mph - N/A   Mostly Cloudy
3:15 AM 57.2 °F 55.4 °F 94% 29.86 in 10.0 mi SW 6.9 mph - N/A   Overcast
3:35 AM 57.2 °F 55.4 °F 94% 29.86 in 10.0 mi SW 5.8 mph - N/A   Overcast
3:55 AM 55.4 °F 55.4 °F 100% 29.85 in 10.0 mi SSW 8.1 mph - N/A   Scattered Clouds
4:15 AM 55.4 °F 53.6 °F 94% 29.85 in 10.0 mi SSW 6.9 mph - N/A   Clear
4:35 AM 55.4 °F 53.6 °F 94% 29.86 in 10.0 mi SSW 8.1 mph - N/A   Clear
4:55 AM 55.4 °F 53.6 °F 94% 29.86 in 10.0 mi SSW 10.4 mph - N/A   Clear
5:15 AM 53.6 °F 53.6 °F 100% 29.86 in 10.0 mi SSW 9.2 mph - N/A   Clear
5:35 AM 53.6 °F 53.6 °F 100% 29.87 in 10.0 mi SSW 9.2 mph - N/A   Scattered Clouds
5:55 AM 53.6 °F 53.6 °F 100% 29.88 in 10.0 mi SW 8.1 mph - N/A   Clear
6:15 AM 53.6 °F 53.6 °F 100% 29.90 in 10.0 mi SW 6.9 mph - N/A   Scattered Clouds
6:35 AM 53.6 °F 53.6 °F 100% 29.90 in 10.0 mi SW 11.5 mph 16.1 mph N/A   Scattered Clouds
6:55 AM 51.8 °F 51.8 °F 100% 29.90 in 10.0 mi SW 9.2 mph - N/A   Clear
7:15 AM 51.8 °F 51.8 °F 100% 29.91 in 10.0 mi SSW 10.4 mph - N/A   Clear
7:35 AM 51.8 °F 51.8 °F 100% 29.91 in 10.0 mi SSW 10.4 mph - N/A   Clear
7:55 AM 51.8 °F 51.8 °F 100% 29.91 in 10.0 mi SSW 11.5 mph - N/A   Clear
8:15 AM 51.8 °F 51.8 °F 100% 29.93 in 10.0 mi SSW 9.2 mph - N/A   Clear
8:35 AM 53.6 °F 51.8 °F 94% 29.93 in 10.0 mi SW 10.4 mph - N/A   Clear
8:55 AM 53.6 °F 51.8 °F 94% 29.93 in 10.0 mi SSW 6.9 mph - N/A   Clear
9:15 AM 55.4 °F 51.8 °F 88% 29.92 in 10.0 mi South 5.8 mph - N/A   Clear
9:35 AM 53.6 °F 51.8 °F 94% 29.92 in 10.0 mi South 9.2 mph - N/A   Clear
9:55 AM 55.4 °F 53.6 °F 94% 29.93 in 10.0 mi South 9.2 mph - N/A   Clear
10:15 AM 55.4 °F 53.6 °F 94% 29.92 in 10.0 mi South 10.4 mph - N/A   Clear
10:35 AM 55.4 °F 53.6 °F 94% 29.92 in 10.0 mi South 11.5 mph - N/A   Clear
10:55 AM 55.4 °F 53.6 °F 94% 29.92 in 10.0 mi South 12.7 mph 19.6 mph N/A   Clear
11:15 AM 57.2 °F 53.6 °F 88% 29.90 in 10.0 mi South 13.8 mph 17.3 mph N/A   Clear
11:35 AM 57.2 °F 53.6 °F 88% 29.89 in 10.0 mi South 16.1 mph 19.6 mph N/A   Clear
11:55 AM 57.2 °F 53.6 °F 88% 29.88 in 10.0 mi South 13.8 mph 23.0 mph N/A   Clear
12:15 PM 59.0 °F 53.6 °F 82% 29.88 in 10.0 mi South 17.3 mph 23.0 mph N/A   Clear
12:35 PM 60.8 °F 53.6 °F 77% 29.87 in 10.0 mi South 17.3 mph - N/A   Clear
12:55 PM 59.0 °F 51.8 °F 77% 29.86 in 10.0 mi South 15.0 mph 20.7 mph N/A   Clear
1:15 PM 60.8 °F 53.6 °F 77% 29.86 in 10.0 mi South 12.7 mph 23.0 mph N/A   Clear
1:35 PM 59.0 °F 53.6 °F 82% 29.85 in 10.0 mi South 17.3 mph 23.0 mph N/A   Clear
1:55 PM 59.0 °F 53.6 °F 82% 29.86 in 10.0 mi South 15.0 mph 21.9 mph N/A   Clear
2:15 PM 59.0 °F 53.6 °F 82% 29.85 in 10.0 mi South 16.1 mph 24.2 mph N/A   Clear
2:35 PM 59.0 °F 51.8 °F 77% 29.85 in 10.0 mi South 16.1 mph 25.3 mph N/A   Clear
2:55 PM 59.0 °F 51.8 °F 77% 29.85 in 10.0 mi South 15.0 mph 26.5 mph N/A   Clear
3:15 PM 59.0 °F 53.6 °F 82% 29.86 in 10.0 mi South 17.3 mph 20.7 mph N/A   Clear
3:35 PM 59.0 °F 53.6 °F 82% 29.86 in 10.0 mi South 13.8 mph 20.7 mph N/A   Clear
3:55 PM 59.0 °F 53.6 °F 82% 29.86 in 10.0 mi South 13.8 mph 21.9 mph N/A   Clear
4:15 PM 57.2 °F 55.4 °F 94% 29.86 in 10.0 mi South 12.7 mph - N/A   Clear
4:35 PM 57.2 °F 55.4 °F 94% 29.85 in 10.0 mi South 12.7 mph 16.1 mph N/A   Clear
4:55 PM 57.2 °F 55.4 °F 94% 29.86 in 10.0 mi South 11.5 mph 19.6 mph N/A   Clear
5:15 PM 55.4 °F 55.4 °F 100% 29.85 in 10.0 mi SSE 11.5 mph 18.4 mph N/A   Clear
5:35 PM 55.4 °F 55.4 °F 100% 29.86 in 10.0 mi South 12.7 mph 19.6 mph N/A   Clear
5:55 PM 55.4 °F 55.4 °F 100% 29.86 in 10.0 mi South 13.8 mph 19.6 mph N/A   Clear
6:15 PM 55.4 °F 55.4 °F 100% 29.86 in 10.0 mi SSE 12.7 mph 17.3 mph N/A   Clear
6:35 PM 55.4 °F 55.4 °F 100% 29.86 in 10.0 mi South 11.5 mph 20.7 mph N/A   Clear
6:55 PM 55.4 °F 55.4 °F 100% 29.86 in 10.0 mi South 15.0 mph 23.0 mph N/A   Clear
7:15 PM 55.4 °F 55.4 °F 100% 29.86 in 10.0 mi South 17.3 mph 24.2 mph N/A   Clear
7:35 PM 55.4 °F 55.4 °F 100% 29.86 in 10.0 mi South 18.4 mph 24.2 mph N/A   Clear
7:55 PM 55.4 °F 55.4 °F 100% 29.86 in 10.0 mi South 13.8 mph 25.3 mph N/A   Clear
8:15 PM 55.4 °F 55.4 °F 100% 29.87 in 10.0 mi South 12.7 mph 20.7 mph N/A   Clear
8:35 PM 55.4 °F 53.6 °F 94% 29.87 in 10.0 mi South 11.5 mph 17.3 mph N/A   Clear
8:55 PM 55.4 °F 53.6 °F 94% 29.87 in 10.0 mi South 11.5 mph - N/A   Clear
9:15 PM 55.4 °F 53.6 °F 94% 29.87 in 10.0 mi South 10.4 mph - N/A   Clear
9:35 PM 55.4 °F 53.6 °F 94% 29.87 in 10.0 mi South 11.5 mph 18.4 mph N/A   Clear
9:55 PM 55.4 °F 53.6 °F 94% 29.87 in 10.0 mi South 9.2 mph - N/A   Clear
10:15 PM 55.4 °F 53.6 °F 94% 29.86 in 10.0 mi South 10.4 mph - N/A   Clear
10:35 PM 55.4 °F 53.6 °F 94% 29.86 in 10.0 mi South 8.1 mph - N/A   Clear
10:55 PM 55.4 °F 53.6 °F 94% 29.86 in 10.0 mi South 10.4 mph - N/A   Clear
11:15 PM 55.4 °F 53.6 °F 94% 29.86 in 10.0 mi South 8.1 mph - N/A   Clear
11:35 PM 55.4 °F 53.6 °F 94% 29.86 in 10.0 mi South 6.9 mph - N/A   Clear
11:55 PM 53.6 °F 53.6 °F 100% 29.87 in 10.0 mi SSW 6.9 mph - N/A   Clear